Weather History for Lafayette, LA

Change the Weather History Date:

Thursday, March 7, 2013

  Actual Average Record
Temperature  
Mean Temperature 52 °F 60 °F  
Max Temperature 65 °F 70 °F 87 °F (1911)
Min Temperature 39 °F 51 °F 27 °F (1902)
Degree Days  
Heating Degree Days 13 6  
Month to date heating degree days 91 47  
Since 1 July heating degree days 1101 1277  
Cooling Degree Days 0 2  
Month to date cooling degree days 0 8  
Year to date cooling degree days 31 40  
Growing Degree Days 2 (Base 50)    
Moisture  
Dew Point 34 °F    
Average Humidity 58    
Maximum Humidity 92    
Minimum Humidity 24    
Precipitation  
Precipitation 0.00 in 0.13 in 3.02 in (1928)
Month to date precipitation T 0.97  
Year to date precipitation 17.87 11.09  
Snow  
Snow 0.00 in 0.00 in T in (1996)
Month to date snowfall 0.0 0.0  
Since 1 July snowfall 0.0 T  
Snow Depth 0.00 in    
Sea Level Pressure  
Sea Level Pressure 30.28 in    
Wind  
Wind Speed 2 mph (ENE)    
Max Wind Speed 9 mph    
Max Gust Speed 13 mph    
Visibility 10 miles    
Events      
T = Trace of Precipitation, MM = Missing Value Source: NWS Daily Summary

Daily Weather History Graph

Daily Weather History Graph

Search for Another Location

Airport:

Trip Planner

Search our weather history database for the weather conditions in past years. The results will help you decide how hot, cold, wet, or windy it might be!

Date:

Astronomy

Mar. 07, 2013 Rise Set
Actual Time 6:26 AM CST 6:11 PM CST
Civil Twilight 6:02 AM CST 6:35 PM CST
Nautical Twilight 5:35 AM CST 7:02 PM CST
Astronomical Twilight 5:07 AM CST 7:30 PM CST
Moon 3:11 AM CST (3/7) 2:13 PM CST (3/7)
Length of Visible Light 12h 32m
Length of Day
11h 44m
Waning Crescent, 20% of the Moon is Illuminated
Mar 7
Waning Crescent
Mar 11
New
Mar 19
First Quarter
Mar 27
Full
Apr 2
Last Quarter

Hourly Weather History & Observations

Time (CST) Temp. Windchill Dew Point Humidity Pressure Visibility Wind Dir Wind Speed Gust Speed Precip Events Conditions
12:53 AM 46.9 °F - 30.9 °F 54% 30.25 in 10.0 mi East 3.5 mph - N/A   Clear
1:53 AM 46.0 °F - 30.9 °F 56% 30.28 in 10.0 mi Calm Calm - N/A   Clear
2:53 AM 44.1 °F - 32.0 °F 63% 30.27 in 10.0 mi Calm Calm - N/A   Clear
3:53 AM 42.1 °F - 33.1 °F 70% 30.28 in 10.0 mi Calm Calm - N/A   Clear
4:53 AM 39.9 °F - 34.0 °F 79% 30.27 in 10.0 mi Calm Calm - N/A   Clear
5:53 AM 41.0 °F - 32.0 °F 70% 30.29 in 10.0 mi Calm Calm - N/A   Clear
6:53 AM 39.9 °F - 33.1 °F 77% 30.31 in 10.0 mi Calm Calm - N/A   Clear
7:53 AM 44.1 °F 41.5 °F 35.1 °F 71% 30.33 in 10.0 mi ENE 4.6 mph - N/A   Clear
8:53 AM 48.9 °F - 34.0 °F 56% 30.35 in 10.0 mi ENE 5.8 mph - N/A   Clear
9:53 AM 53.1 °F - 34.0 °F 48% 30.35 in 10.0 mi SE 5.8 mph - N/A   Clear
10:53 AM 57.0 °F - 32.0 °F 39% 30.34 in 10.0 mi Variable 3.5 mph - N/A   Clear
11:53 AM 61.0 °F - 30.0 °F 31% 30.32 in 10.0 mi Calm Calm - N/A   Clear
12:53 PM 61.0 °F - 28.9 °F 30% 30.30 in 10.0 mi NE 5.8 mph - N/A   Clear
1:53 PM 62.1 °F - 30.9 °F 31% 30.28 in 10.0 mi North 5.8 mph - N/A   Clear
2:53 PM 63.0 °F - 30.0 °F 29% 30.26 in 10.0 mi Calm Calm - N/A   Clear
3:53 PM 64.0 °F - 28.9 °F 27% 30.25 in 10.0 mi Calm Calm - N/A   Clear
4:53 PM 64.0 °F - 26.1 °F 24% 30.24 in 10.0 mi Calm Calm - N/A   Clear
5:53 PM 62.1 °F - 27.0 °F 26% 30.24 in 10.0 mi Calm Calm - N/A   Clear
6:53 PM 55.9 °F - 37.9 °F 51% 30.25 in 10.0 mi Calm Calm - N/A   Clear
7:53 PM 54.0 °F - 39.0 °F 57% 30.25 in 10.0 mi South 3.5 mph - N/A   Clear
8:53 PM 51.1 °F - 41.0 °F 68% 30.26 in 10.0 mi Calm Calm - N/A   Clear
9:53 PM 48.9 °F - 39.9 °F 71% 30.26 in 10.0 mi Calm Calm - N/A   Clear
10:53 PM 45.0 °F - 42.1 °F 90% 30.26 in 10.0 mi Calm Calm - N/A   Clear
11:53 PM 45.0 °F - 43.0 °F 93% 30.26 in 8.0 mi Calm Calm - N/A   Clear